Location: Unspecified
(50.9517°N, 0.0000°E)
Time: 05:01:36
(UTC+00:00)

CZ-6A DEB - Visible Passes

Search period start: 04 April 2026 00:00
Search period end: 14 April 2026 00:00
Orbit: 793 x 865 km, 89.0° (Epoch: 29 March)

Date Brightness Start Highest point End Pass type
(mag) Time Alt. Az. Time Alt. Az. Time Alt. Az.
5 Apr ? 04:46:19 10° SE 04:50:25 23° ENE 04:54:31 10° NNE visible
6 Apr ? 04:28:41 10° ESE 04:32:13 19° ENE 04:35:47 10° NNE visible
7 Apr ? 04:11:17 10° E 04:14:03 15° ENE 04:16:51 10° NE visible
7 Apr ? 19:46:23 10° NW 19:47:47 11° WNW 19:49:12 10° W visible
8 Apr ? 03:54:24 10° E 03:55:56 11° ENE 03:57:27 10° NE visible
8 Apr ? 19:26:53 10° NW 19:29:40 14° WNW 19:32:28 10° W visible
11 Apr ? 04:36:52 10° SE 04:41:28 32° ENE 04:46:07 10° NNE visible
12 Apr ? 04:19:00 10° SE 04:23:14 25° ENE 04:27:30 10° NNE visible
13 Apr ? 04:01:19 10° ESE 04:05:01 20° ENE 04:08:48 10° NNE visible
